EST,Max TemperatureF,Mean TemperatureF,Min TemperatureF,Max Dew PointF,MeanDew PointF,Min DewpointF,Max Humidity, Mean Humidity, Min Humidity, Max Sea Level PressureIn, Mean Sea Level PressureIn, Min Sea Level PressureIn, Max VisibilityMiles, Mean VisibilityMiles, Min VisibilityMiles, Max Wind SpeedMPH, Mean Wind SpeedMPH, Max Gust SpeedMPH,PrecipitationIn, CloudCover, Events, WindDirDegrees
2014-1-1,30,26,21,12,8,5,63,47,36,30.39,30.34,30.20,10,10,10,14,8,28,0.00,2,,274
2014-1-2,33,30,26,30,26,13,93,86,53,30.35,30.02,29.66,10,2,0,31,14,46,0.14,8,Fog-Rain-Snow,59
2014-1-3,27,21,14,25,16,5,93,80,64,30.38,29.81,29.48,10,2,0,25,17,43,0.33,8,Fog-Snow,1
2014-1-4,37,21,5,30,15,1,87,74,56,30.55,30.42,30.30,10,10,6,15,7,26,0.00,2,Snow,241
2014-1-5,37,34,30,30,26,21,85,77,69,30.34,30.31,30.30,10,10,10,9,6,,0.00,2,,263
2014-1-6,46,39,30,45,36,19,97,89,61,29.52,29.42,29.38,10,7,0,13,9,23,0.08,8,Fog-Rain,254
2014-1-7,30,20,10,20,2,-10,81,51,33,30.28,29.88,29.55,10,9,1,18,11,36,0.00,3,Snow,269
2014-1-8,23,16,9,10,1,-7,65,51,40,30.48,30.42,30.30,10,10,10,10,7,18,0.00,1,,258
2014-1-9,28,22,15,11,8,2,81,59,47,30.67,30.58,30.45,10,10,10,10,4,22,0.00,0,,290
2014-1-10,41,26,14,39,30,9,97,87,72,30.63,30.47,30.30,10,8,1,9,4,20,0.08,7,Rain-Snow,189
2014-1-11,55,48,42,54,47,40,100,95,86,30.29,29.81,29.39,10,3,0,22,10,41,0.82,8,Fog-Rain,188
2014-1-12,48,42,34,48,38,23,100,80,46,30.00,29.53,29.35,10,7,1,16,9,30,0.10,6,Rain,251
2014-1-13,46,39,32,42,33,22,86,77,64,30.18,30.10,29.99,10,10,10,12,6,25,0.00,0,,224
2014-1-14,50,48,46,49,46,42,97,93,86,29.97,29.76,29.60,10,5,0,15,10,23,0.63,7,Fog-Rain,203
2014-1-15,45,40,35,42,37,33,97,89,71,30.06,29.95,29.76,10,8,2,9,4,21,0.00,0,,203
2014-1-16,44,42,39,41,40,38,97,93,89,29.93,29.87,29.84,10,6,0,7,3,,0.00,8,Fog,9
2014-1-17,43,38,33,39,35,29,96,87,65,30.01,29.97,29.92,10,9,5,10,3,20,0.00,4,,223
2014-1-18,43,38,34,41,36,33,96,88,76,29.95,29.70,29.58,10,7,2,12,5,20,0.19,7,Rain,190
2014-1-19,36,34,32,33,28,23,96,78,59,29.75,29.69,29.62,10,9,4,21,8,36,0.00,5,Snow,246
2014-1-20,44,40,34,30,26,19,70,62,53,29.84,29.65,29.55,10,10,10,13,10,26,0.00,3,,255
2014-1-21,32,26,19,22,16,2,88,73,42,30.05,29.90,29.75,10,5,0,17,8,31,0.18,7,Fog-Snow,22
2014-1-22,27,20,14,22,17,4,89,78,57,29.86,29.63,29.48,10,3,0,18,14,37,0.30,8,Fog-Snow,6
2014-1-23,21,16,10,9,4,-3,84,63,38,30.18,30.01,29.87,10,9,5,10,5,22,0.00,3,Snow,285
2014-1-24,17,12,7,1,-3,-6,61,52,37,30.25,30.20,30.13,10,10,10,12,7,23,0.00,0,,271
2014-1-25,37,23,9,32,24,-1,92,79,64,30.11,29.71,29.35,10,6,2,18,8,33,0.04,8,Rain-Snow,222
2014-1-26,27,23,19,22,9,-3,81,58,34,29.95,29.73,29.38,10,10,10,15,8,29,0.00,3,,258
2014-1-27,44,36,27,38,28,5,86,72,38,29.98,29.76,29.60,10,10,7,15,10,25,0.00,5,,211
2014-1-28,26,21,16,6,-3,-8,46,38,30,30.33,30.22,29.97,10,10,10,12,6,25,0.00,3,,304
2014-1-29,24,20,16,17,12,0,89,74,42,30.23,30.09,30.00,10,5,0,9,3,,0.15,5,Fog-Snow,290
2014-1-30,30,18,8,23,8,-3,78,57,42,30.46,30.37,30.26,10,10,10,10,5,,0.00,1,,226
2014-1-31,37,34,30,34,27,20,89,74,50,30.22,30.13,30.06,10,10,10,12,7,18,0.00,4,,224